Location: Clarks Summit,Pa.
(41.5000°N, 75.6000°W)
Time: 20:13:06
(UTC-05:00)

Envisat - Pass Details

Date: 01 December 2021
Orbit: 764 x 766 km, 98.2° (Epoch: 16 January)

Event Time Altitude Azimuth Distance (km) Brightness Sun altitude
Rises 05:44:28 0° 5° (N) 3,242 6.1 -15.6°
Reaches altitude 10° 05:46:53 10° 358° (N) 2,311 5.3 -15.1°
Maximum altitude 05:51:36 40° 290° (WNW) 1,120 3.4 -14.3°
Drops below altitude 10° 05:56:18 10° 222° (SW) 2,295 5.2 -13.4°
Sets 05:58:42 0° 215° (SW) 3,217 6.1 -13.0°
